This demonstration page uses our WeatherBlox Daily Observations layout. Learn more.

Left ArrowRight Arrow

44.89941, -97.11507

Hourly Observations for July 3, 2020

Temp ( °F °C ) Dew Point ( °F °C ) Humidity (%) Winds ( mph kmh ) Pressure ( in mb ) Visibility ( mi km ) Precip ( " mm )
12:53 am 00:53 Mostly Clear 73 22.8 69 20.6 87 87 Calm 30.05 1018 10 16 0.00 0.00
1:53 am 01:53 Partly Cloudy 74 23.3 70 21.1 88 88 Calm 30.07 1018 10 16 0.00 0.00
2:53 am 02:53 Mostly Clear 72 22.2 65 18.3 79 79 WNW 10 17 30.06 1018 10 16 0.00 0.00
3:53 am 03:53 Clear 70 21.1 63 17.2 79 79 Calm 30.05 1018 10 16 0.00 0.00
4:53 am 04:53 Clear 68 20 63 17.2 84 84 ENE 5 7 30.02 1017 10 16 0.00 0.00
5:53 am 05:53 Sunny 69 20.6 63 17.2 81 81 E 5 7 29.98 1015 10 16 0.00 0.00
6:53 am 06:53 Sunny 70 21.1 65 18.3 84 84 Calm 30.01 1016 10 16 0.00 0.00
7:53 am 07:53 Sunny 73 22.8 67 19.4 81 81 SE 10 17 30.00 1016 10 16 0.00 0.00
8:53 am 08:53 Sunny 77 25 69 20.6 77 77 NW 13 20 30.05 1018 10 16 0.00 0.00
9:53 am 09:53 Sunny 80 26.7 70 21.1 71 71 N 6 9 30.06 1018 10 16 0.00 0.00
10:53 am 10:53 Partly Cloudy 80 26.7 70 21.1 71 71 WNW 7 11 30.07 1018 10 16 0.00 0.00
11:53 am 11:53 Sunny 82 27.8 69 20.6 65 65 VRB 6 9 30.06 1018 10 16 0.00 0.00
12:03 pm 12:03 Sunny with Nearby Thunderstorms 83 28.3 70 21.1 65 65 SE 9 15 29.99 1016 10 16 0.00 0.00
12:33 pm 12:33 Sunny 81 27.2 69 20.6 67 67 E 9 15 30.00 1016 10 16 0.00 0.00
12:53 pm 12:53 Sunny 84 28.9 71 21.7 65 65 SE 9 15 30.05 1018 10 16 0.00 0.00
1:53 pm 13:53 Sunny 85 29.4 70 21.1 61 61 SE 14 22 30.05 1018 10 16 0.00 0.00
2:53 pm 14:53 Sunny 86 30 70 21.1 59 59 SSE 10 17 30.04 1017 10 16 0.00 0.00
3:53 pm 15:53 Sunny 87 30.6 71 21.7 59 59 S 13 20 30.04 1017 10 16 0.00 0.00
4:53 pm 16:53 Sunny 87 30.6 70 21.1 57 57 S 10 17 30.03 1017 10 16 0.00 0.00
5:53 pm 17:53 Partly Cloudy 87 30.6 70 21.1 57 57 S 9 15 30.02 1017 10 16 0.00 0.00
6:53 pm 18:53 Mostly Sunny 85 29.4 70 21.1 61 61 SSE 9 15 30.01 1016 10 16 0.00 0.00
7:53 pm 19:53 Sunny 83 28.3 68 20 61 61 SSE 8 13 30.02 1017 10 16 0.00 0.00
8:53 pm 20:53 Sunny 80 26.7 69 20.6 69 69 S 5 7 30.01 1016 10 16 0.00 0.00
9:53 pm 21:53 Clear 80 26.7 68 20 67 67 ESE 5 7 30.02 1017 10 16 0.00 0.00
10:53 pm 22:53 Clear 77 25 68 20 74 74 ESE 6 9 30.04 1017 10 16 0.00 0.00
11:53 pm 23:53 Clear 74 23.3 68 20 82 82 SSE 6 9 30.04 1017 10 16 0.00 0.00

Powered by AerisWeather